Find Kuiper-00320

NORAD ID: 68601 Int'l Des: 2026-072 Owner: KUIP Country: US Constellation: kuiper operational
LEOCIRCULAR

Live Position

Loading 3D Globe...

About Kuiper-00320

Description loading...

Upcoming Passes

Passes for default location (London). Set your location on the main map for personalized predictions.

Altitude History

Loading altitude history...

Two-Line Element Set

1 68601U 26072AE 26111.41540611 .00024347 00000-0 69057-3 0 9991
2 68601 51.8609 91.6597 0010993 179.5711 180.5286 15.36039635 2645
Epoch: Apr 21, 2026 • Age: 17 hours

Current Status

Altitude 472.4 km
Velocity 7.63 km/s
Sub-Earth Point -49.58°S, 84.25°E
Launch Date Apr 4, 2026
Age 18 days
Type internet

Technical Details

Classification Payload
Mass 490.00 kg
Dry Mass 490.00 kg
Total Mass 490.00 kg
Length 1.80 m
Diameter 0.70 m
Span 5.00 m
Shape Box + 2 pan
Manufacturer KUIP
Bus Type Kuiper
Phase Status In Orbit
Owner/State KUIP/US

Most Searched